User: anonymous   Login
Location: Unspecified
(0.0000°N, 0.0000°E)
Time: 07:03:18
(UTC+00:00)
Language:

OBJECT Z - Orbit

View from above orbital plane
View from above orbital plane
View from above satellite
View from above satellite

Ground track
Ground track

The orbit data is extracted from the following two-line orbital elements,

1 43134U 18004Z   20223.84647472 +.00000948 +00000-0 +41721-4 0  9999
2 43134 097.4438 294.7106 0008342 214.6397 145.4298 15.24301997143338
Epoch (UTC): 10 August 2020 20:18:55
Eccentricity: 0.0008342
inclination: 97.4438°
perigee height: 487 km
apogee height: 498 km
right ascension of ascending node: 294.7106°
argument of perigee: 214.6397°
revolutions per day: 15.24301997
mean anomaly at epoch: 145.4298°
orbit number at epoch: 14333

The dashed part of the orbit path shows where the satellite is in the earth's shadow,  

DLR